DW2770 Cefalu IT current weather conditions

sailwx.info

Wind from 195 at 4 knots gusting 7

Air temperature 20.6° C
Dewpoint 16.8° C

Last reported at 2017-Jul-27 00:00 UTC.
Time now 2017-Jul-27 00:23 UTC

Location: N 38°02' E 014°02'.
View on Google Maps.

See reports from other nearby stations

  
Tides and Currents Weather Stations Pressure Air Temp Water Temp Dewpoint Dewpoint Depression Visibility Wind Speed Wind Dir Waves Ship Positions
date/time (UTC)wind fromknots sea level pressurealtimeterstation pressurevisibilityair tempwater tempwave heightnotes
2017-Jul-27 00:00 195 4 gusting 7 20.6
2017-Jul-26 23:50 180 5 gusting 6 20.0
2017-Jul-26 23:40 158 1 gusting 2 20.0
2017-Jul-26 23:30 135 2 gusting 5 20.6
2017-Jul-26 23:10 225 7 gusting 13 20.6
2017-Jul-26 23:00 225 12 gusting 13 20.6
2017-Jul-26 22:30 187 12 gusting 15 18.3
2017-Jul-26 22:20 205 4 gusting 12 19.4
2017-Jul-26 22:10 315 6 gusting 8 18.9
2017-Jul-26 22:00 21.1
2017-Jul-26 21:50 200 21.7
2017-Jul-26 21:40 202 4 gusting 20 22.8
2017-Jul-26 21:10 315 6 gusting 7 25.0
2017-Jul-26 20:50 315 6 gusting 10 25.0
2017-Jul-26 20:40 292 10 gusting 12 25.0
2017-Jul-26 20:30 208 7 gusting 12 25.0
2017-Jul-26 20:20 202 8 gusting 11 25.0
2017-Jul-26 20:10 270 6 gusting 11 25.0
2017-Jul-26 20:00 239 9 gusting 10 25.0
2017-Jul-26 19:50 270 6 gusting 10 25.0
2017-Jul-26 19:40 225 5 gusting 10 25.0
2017-Jul-26 19:30 303 10 gusting 10 25.0
2017-Jul-26 19:20 270 6 gusting 11 25.0
2017-Jul-26 19:10 270 9 gusting 11 25.0
2017-Jul-26 19:00 225 8 gusting 8 25.0
2017-Jul-26 18:50 090 4 gusting 6 25.0
2017-Jul-26 18:40 248 7 gusting 8 25.0
2017-Jul-26 18:30 336 6 gusting 12 25.6
2017-Jul-26 18:20 225 12 gusting 13 25.6
2017-Jul-26 18:00 278 6 gusting 13 25.6
2017-Jul-26 17:50 270 10 gusting 13 25.6
2017-Jul-26 17:40 270 8 gusting 14 25.6
2017-Jul-26 17:10 045 10 gusting 14 25.6
2017-Jul-26 17:00 271 13 gusting 14 25.6
2017-Jul-26 16:50 292 13 gusting 13 25.6
2017-Jul-26 16:20 195 5 gusting 11 25.6
2017-Jul-26 16:10 270 8 gusting 13 25.6
2017-Jul-26 16:00 315 12 gusting 13 26.1
2017-Jul-26 15:40 248 10 gusting 17 25.6
2017-Jul-26 15:30 237 13 gusting 13 25.6
2017-Jul-26 15:20 203 7 gusting 13 25.6
2017-Jul-26 15:10 292 13 gusting 19 25.6
2017-Jul-26 15:00 228 10 gusting 12 25.6
2017-Jul-26 14:50 248 6 gusting 19 25.6
2017-Jul-26 14:40 225 12 gusting 17 26.1
2017-Jul-26 14:20 248 12 gusting 13 26.1
2017-Jul-26 14:00 277 8 gusting 14 26.1
2017-Jul-26 13:50 315 10 gusting 14 26.1
2017-Jul-26 13:30 224 7 gusting 11 26.1
2017-Jul-26 13:20 270 5 gusting 10 25.6
2017-Jul-26 13:00 258 6 gusting 13 26.1
2017-Jul-26 12:40 270 6 gusting 11 26.7
2017-Jul-26 12:10 248 9 gusting 13 26.7
2017-Jul-26 12:00 225 6 gusting 10 26.7
2017-Jul-26 11:50 248 11 gusting 13 26.1
2017-Jul-26 11:30 280 9 gusting 12 26.1
2017-Jul-26 11:20 315 11 gusting 17 26.1
2017-Jul-26 11:00 262 7 gusting 10 26.1
2017-Jul-26 10:40 248 8 gusting 8 26.7
2017-Jul-26 10:30 292 5 gusting 13 26.7
2017-Jul-26 10:20 292 6 gusting 8 26.1
2017-Jul-26 10:10 292 5 gusting 12 26.1
2017-Jul-26 09:50 270 4 gusting 13 26.1
2017-Jul-26 09:40 225 7 gusting 12 26.1
2017-Jul-26 09:30 297 11 gusting 12 26.1
2017-Jul-26 09:20 248 6 gusting 13 26.1
2017-Jul-26 09:10 270 5 gusting 11 26.1
2017-Jul-26 09:00 281 6 gusting 11 26.1
2017-Jul-26 08:40 26.1
2017-Jul-26 08:30 225 4 gusting 8 26.1
2017-Jul-26 08:20 292 8 gusting 8 26.1
2017-Jul-26 08:10 292 7 gusting 10 26.7
2017-Jul-26 08:00 328 5 gusting 10 26.1
2017-Jul-26 07:50 274 10 gusting 10 25.6
2017-Jul-26 07:40 270 3 gusting 8 25.6
2017-Jul-26 07:20 301 3 gusting 8 25.0
2017-Jul-26 07:10 225 7 gusting 13 25.6
2017-Jul-26 07:00 210 11 gusting 13 26.1
2017-Jul-26 06:50 229 8 gusting 12 25.6
2017-Jul-26 06:40 225 7 gusting 14 25.6
2017-Jul-26 06:30 225 14 gusting 14 25.6
2017-Jul-26 06:00 222 12 gusting 12 25.0
2017-Jul-25 23:40 248 8 gusting 13 24.4
2017-Jul-25 23:20 207 8 gusting 11 24.4
2017-Jul-25 22:40 225 6 gusting 10 24.4
2017-Jul-25 22:30 202 7 gusting 10 24.4
2017-Jul-25 22:20 202 4 gusting 5 24.4
2017-Jul-25 22:00 248 5 gusting 10 24.4
2017-Jul-25 21:30 225 6 gusting 6 25.0
2017-Jul-25 21:20 171 5 gusting 8 25.0
2017-Jul-25 21:00 338 5 gusting 8 25.0
2017-Jul-25 20:50 200 6 gusting 7 25.0
2017-Jul-25 20:40 270 8 gusting 10 25.0
2017-Jul-25 20:30 270 4 gusting 7 25.6
2017-Jul-25 20:20 281 5 gusting 13 25.6
2017-Jul-25 20:10 240 6 gusting 8 25.6
2017-Jul-25 20:00 270 6 gusting 10 25.6
2017-Jul-25 19:40 186 6 gusting 13 25.6
2017-Jul-25 19:30 202 8 gusting 12 25.0
2017-Jul-25 19:20 248 12 gusting 13 25.6
2017-Jul-25 19:10 225 13 gusting 19 25.6
2017-Jul-25 19:00 225 16 gusting 19 25.6
2017-Jul-25 18:50 207 11 gusting 11 25.6
2017-Jul-25 18:30 225 7 gusting 12 25.6
2017-Jul-25 18:20 245 7 gusting 11 25.6
2017-Jul-25 18:10 229 5 gusting 11 25.6
2017-Jul-25 18:00 225 6 gusting 6 26.1
2017-Jul-25 17:40 202 7 gusting 14 26.1
2017-Jul-25 17:00 248 6 gusting 8 26.7
2017-Jul-25 16:40 278 8 gusting 15 26.7
2017-Jul-25 16:30 270 8 gusting 14 26.7
2017-Jul-25 15:50 202 7 gusting 13 26.7
2017-Jul-25 15:30 225 16 gusting 19 26.7
2017-Jul-25 15:10 202 10 gusting 11 26.7
2017-Jul-25 14:50 292 7 gusting 13 26.7
2017-Jul-25 14:40 316 4 gusting 12 26.7
2017-Jul-25 14:30 270 6 gusting 13 27.2
2017-Jul-25 14:20 225 13 gusting 14 27.2
2017-Jul-25 14:10 225 11 gusting 11 27.2
2017-Jul-25 14:00 225 7 gusting 11 27.2
2017-Jul-25 13:50 315 4 gusting 11 27.2
2017-Jul-25 13:40 253 10 gusting 11 27.2
2017-Jul-25 13:30 248 13 gusting 18 27.2
2017-Jul-25 13:00 315 8 gusting 8 27.2
2017-Jul-25 12:40 302 7 gusting 10 27.2
2017-Jul-25 12:30 270 6 gusting 6 27.2
2017-Jul-25 12:20 338 4 gusting 12 27.2
2017-Jul-25 12:00 225 14 gusting 14 27.2
2017-Jul-25 11:50 270 7 gusting 12 27.2
2017-Jul-25 11:20 225 7 gusting 13 27.2
2017-Jul-25 11:00 270 6 gusting 6 27.2
2017-Jul-25 10:40 270 6 gusting 8 27.2
2017-Jul-25 10:10 257 4 gusting 8 27.2
2017-Jul-25 10:00 338 10 gusting 12 27.8
2017-Jul-25 09:40 230 4 gusting 12 27.2
2017-Jul-25 09:30 315 11 gusting 11 27.2
2017-Jul-25 09:00 292 6 gusting 8 27.2
2017-Jul-25 08:50 248 5 gusting 8 27.2
2017-Jul-25 08:30 338 4 gusting 11 27.2
2017-Jul-25 08:10 266 5 gusting 5 27.2
2017-Jul-25 08:00 292 8 gusting 11 26.7
2017-Jul-25 07:50 292 7 gusting 13 26.7
2017-Jul-25 07:40 231 6 gusting 7 26.7